Terminal Aerodrome Forecast
Issued by NWS

Home | Current Version | Previous Version | Text Only | Print | Product List | Glossary On
Versions: 1 2 3 4 5 6 7 8 9 10 11 12 13 14 15 16 17 18 19 20 21 22 23 24 25 26 27 28 29 30 31 32 33 34 35 36 37 38 39 40 41 42 43 44 45 46 47 48 49 50
000
FTUS46 KLOX 230529
TAFSBA
TAF
KSBA 230529Z 2306/2406 VRB03KT P6SM SKC
     FM230800 VRB03KT P6SM OVC006
     FM231000 VRB03KT 3SM BR OVC003
     FM231700 16005KT 6SM BR BKN006 BKN150
     FM231900 17005KT P6SM SCT010 BKN150
     FM232200 24008KT P6SM BKN150
     FM240400 VRB03KT P6SM BKN150=

USA.gov is the U.S. government's official web portal to all federal, state and local government web resources and services.